Weather History for Tacoma, WA

Change the Weather History Date:

Tuesday, June 3, 2014

  Actual Average Record
Temperature  
Mean Temperature 56 °F -  
Max Temperature 65 °F 65 °F 88 °F (2009)
Min Temperature 48 °F 46 °F 35 °F (1976)
Degree Days  
Heating Degree Days 9    
Growing Degree Days 6 (Base 50)    
Moisture  
Dew Point 48 °F    
Average Humidity 75    
Maximum Humidity 94    
Minimum Humidity 60    
Precipitation  
Precipitation 0.00 in - - ()
Sea Level Pressure  
Sea Level Pressure 30.04 in    
Wind  
Wind Speed 6 mph (SW)    
Max Wind Speed 12 mph    
Max Gust Speed 21 mph    
Visibility 10 miles    
Events      
Averages and records for this station are not official NWS values.
T = Trace of Precipitation, MM = Missing Value Source: NWS Daily Summary

Daily Weather History Graph

Daily Weather History Graph

Search for Another Location

Airport:

Trip Planner

Search our weather history database for the weather conditions in past years. The results will help you decide how hot, cold, wet, or windy it might be!

Date:

Astronomy

Jun. 03, 2014 Rise Set
Actual Time 5:17 AM PDT 8:59 PM PDT
Civil Twilight 4:38 AM PDT 9:38 PM PDT
Nautical Twilight 3:45 AM PDT 10:31 PM PDT
Astronomical Twilight 2:32 AM PDT 11:45 PM PDT
Moon 11:00 AM PDT (6/3) 12:16 AM PDT (6/3)
Length of Visible Light 17h 00m
Length of Day
15h 42m
Waxing Crescent, 31% of the Moon is Illuminated
Jun 3
Waxing Crescent
Jun 5
First Quarter
Jun 12
Full
Jun 19
Last Quarter
Jun 27
New

Hourly Weather History & Observations

Time (PDT) Temp. Dew Point Humidity Pressure Visibility Wind Dir Wind Speed Gust Speed Precip Events Conditions
12:58 AM 51.4 °F 47.1 °F 85% 29.94 in 10.0 mi SSW 3.5 mph - N/A   Clear
1:58 AM 50.0 °F 46.8 °F 89% 29.96 in 10.0 mi South 4.6 mph - N/A   Clear
2:58 AM 49.1 °F 46.6 °F 91% 29.97 in 10.0 mi SW 8.1 mph - N/A   Clear
3:58 AM 49.8 °F 46.9 °F 90% 29.98 in 10.0 mi South 5.8 mph - N/A   Mostly Cloudy
4:08 AM 48.2 °F 46.4 °F 93% 29.97 in 10.0 mi South 4.6 mph - N/A   Mostly Cloudy
4:13 AM 48.2 °F 46.4 °F 93% 29.97 in 10.0 mi South 4.6 mph - N/A   Overcast
4:58 AM 50.0 °F 47.8 °F 92% 29.99 in 10.0 mi South 5.8 mph - N/A   Overcast
5:38 AM 50.0 °F 48.2 °F 94% 29.99 in 10.0 mi South 5.8 mph - N/A   Overcast
5:53 AM 51.8 °F 48.2 °F 88% 29.99 in 10.0 mi SSW 5.8 mph - N/A   Overcast
5:58 AM 51.3 °F 47.7 °F 87% 30.00 in 10.0 mi South 5.8 mph - N/A   Overcast
6:58 AM 53.4 °F 47.1 °F 79% 30.01 in 10.0 mi SW 9.2 mph - N/A   Overcast
7:58 AM 54.7 °F 47.7 °F 77% 30.02 in 10.0 mi WSW 10.4 mph - N/A   Overcast
8:58 AM 56.1 °F 47.5 °F 73% 30.04 in 10.0 mi SSW 10.4 mph - N/A   Overcast
9:35 AM 57.2 °F 48.2 °F 72% 30.03 in 10.0 mi SSW 11.5 mph - N/A   Overcast
9:58 AM 57.0 °F 47.5 °F 70% 30.05 in 10.0 mi SSW 11.5 mph - N/A   Overcast
10:58 AM 58.3 °F 47.5 °F 67% 30.06 in 10.0 mi SSW 6.9 mph - N/A   Overcast
11:58 AM 59.5 °F 48.4 °F 67% 30.07 in 10.0 mi SSW 6.9 mph - N/A   Overcast
12:58 PM 60.4 °F 49.1 °F 66% 30.07 in 10.0 mi SW 6.9 mph - N/A   Overcast
1:58 PM 61.9 °F 49.3 °F 63% 30.07 in 10.0 mi WSW 9.2 mph - N/A   Overcast
2:08 PM 62.6 °F 50.0 °F 63% 30.06 in 10.0 mi SW 8.1 mph - N/A   Overcast
2:58 PM 63.1 °F 49.8 °F 62% 30.07 in 10.0 mi SW 8.1 mph - N/A   Overcast
3:58 PM 63.9 °F 50.5 °F 62% 30.07 in 10.0 mi SW 8.1 mph - N/A   Overcast
4:58 PM 64.2 °F 50.9 °F 62% 30.07 in 10.0 mi Variable 4.6 mph - N/A   Overcast
5:58 PM 64.8 °F 51.1 °F 61% 30.07 in 10.0 mi WNW 5.8 mph - N/A   Overcast
6:58 PM 64.9 °F 51.8 °F 62% 30.06 in 10.0 mi SSE 3.5 mph - N/A   Overcast
7:58 PM 64.0 °F 50.0 °F 60% 30.07 in 10.0 mi WNW 9.2 mph - N/A   Overcast
8:58 PM 61.9 °F 49.8 °F 65% 30.08 in 10.0 mi West 8.1 mph - N/A   Overcast
9:58 PM 59.4 °F 49.3 °F 69% 30.10 in 10.0 mi West 8.1 mph - N/A   Overcast
10:58 PM 57.0 °F 48.7 °F 74% 30.11 in 10.0 mi West 9.2 mph 20.7 mph N/A   Overcast
11:58 PM 53.8 °F 47.7 °F 80% 30.12 in 10.0 mi West 5.8 mph - N/A   Clear